Location: Malcolm X Square
(37.7810°N, 122.4297°W)
Time: 00:00:17
(UTC+00:00)

Cosmos 1867 - Pass Details

Date: 13 April 2024
Orbit: 772 x 802 km, 65.0° (Epoch: 21 May)

Event Time Altitude Azimuth Distance (km) Brightness Sun altitude
Rises 12:09:37 0° 320° (NW) 3,316 6.7 -17.0°
Reaches altitude 10° 12:12:13 10° 312° (NW) 2,380 5.8 -16.5°
Maximum altitude 12:17:09 35° 248° (WSW) 1,263 4.1 -15.6°
Drops below altitude 10° 12:22:03 10° 183° (S) 2,356 5.8 -14.8°
Sets 12:24:37 0° 175° (S) 3,278 6.6 -14.3°
